Regional Weather Roundup
Issued by NWS

Home | Current Version | Previous Version | Text Only | Print | Product List | Glossary Off
Versions: 1 2 3 4 5 6 7 8 9 10 11 12 13 14 15 16 17 18 19 20 21 22 23 24 25 26 27 28 29 30 31 32 33 34 35 36 37 38 39 40 41 42 43 44 45 46 47 48 49 50

000
ASUS43 KBIS 221420
RWRND

NORTH DAKOTA REGIONAL WEATHER ROUNDUP
NATIONAL WEATHER SERVICE BISMARCK ND
900 AM CDT MON SEP 22 2014

NOTE: "FAIR" INDICATES FEW OR NO CLOUDS BELOW 12,000 FEET WITH NO
SIGNIFICANT WEATHER AND/OR OBSTRUCTIONS TO VISIBILITY.


NDZ001>003-009>011-017-221500-
NORTHWEST NORTH DAKOTA

CITY           SKY/WX    TMP DP  RH WIND       PRES   REMARKS
WILLISTON      SUNNY     50  40  68 N3        30.04F
MINOT          SUNNY     56  43  61 SE6       30.08F
MINOT AFB      SUNNY     53  45  75 S5        30.07F
$$

NDZ018>021-031>035-040>046-221500-
SOUTHWEST NORTH DAKOTA

CITY           SKY/WX    TMP DP  RH WIND       PRES   REMARKS
BISMARCK       SUNNY     51  46  83 E7        30.13F
DICKINSON      SUNNY     51  41  68 S13       30.04F
GARRISON         N/A     51  47  86 E5        30.10F
HETTINGER ARPT SUNNY     51  40  65 SE6       30.08F
$$

NDZ004>008-012>016-024-026-027-054-221500-
NORTHEAST NORTH DAKOTA

CITY           SKY/WX    TMP DP  RH WIND       PRES   REMARKS
GRAND FORKS    SUNNY     53  49  86 S3        30.13F
GRND FRKS AFB  SUNNY     59  51  74 SW6       30.13F
DEVILS LAKE    SUNNY     57  45  62 SW9       30.11F
$$

NDZ022-023-025-028>030-036>039-047>053-221500-
SOUTHEAST NORTH DAKOTA

CITY           SKY/WX    TMP DP  RH WIND       PRES   REMARKS
FARGO          SUNNY     52  47  83 S7        30.18F
JAMESTOWN      SUNNY     51  46  83 S3        30.16F
$$



USA.gov is the U.S. government's official web portal to all federal, state and local government web resources and services.